timestamp,surface_pressure_avg,surface_temp_avg,battery_voltage,lat,long
2022-11-29 00:09:00+00:00,288.9531,5.7,12.49,47.84626,-54.09684
2022-11-29 00:19:00+00:00,287.8531,5.7,12.49,47.84626,-54.09684
2022-11-29 00:29:00+00:00,288.7047,5.7,12.49,47.84626,-54.09684
2022-11-29 00:39:00+00:00,300.5814,5.66,12.49,47.84626,-54.09684
2022-11-29 00:49:00+00:00,312.2797,5.67,12.49,47.84626,-54.09684
2022-11-29 00:59:00+00:00,310.3097,5.6,12.49,47.84626,-54.09684
2022-11-29 01:09:00+00:00,312.7963,5.59,12.49,47.84626,-54.09684
2022-11-29 01:19:00+00:00,329.5197,5.7,12.49,47.84626,-54.09684
2022-11-29 01:29:00+00:00,331.7146,5.7,12.49,47.84626,-54.09684
2022-11-29 01:39:00+00:00,319.8063,5.67,12.49,47.84626,-54.09684
2022-11-29 01:49:00+00:00,333.5496,5.7,12.49,47.84626,-54.09684
2022-11-29 01:59:00+00:00,355.3547,5.77,12.49,47.84626,-54.09684
2022-11-29 02:09:00+00:00,354.1913,5.7,12.49,47.84626,-54.09684
2022-11-29 02:19:00+00:00,346.9329,5.77,12.49,47.84626,-54.09684
2022-11-29 02:29:00+00:00,356.4513,5.79,12.49,47.84626,-54.09684
2022-11-29 02:39:00+00:00,357.1396,5.7,12.49,47.84626,-54.09684
2022-11-29 02:49:00+00:00,349.838,5.6,12.49,47.84626,-54.09684
2022-11-29 02:59:00+00:00,352.3463,5.7,12.49,47.84626,-54.09684
2022-11-29 03:09:00+00:00,355.5297,5.7,12.49,47.84626,-54.09684
2022-11-29 03:19:01+00:00,344.1429,5.63,12.49,47.84626,-54.09684
2022-11-29 03:29:01+00:00,338.4529,5.67,12.49,47.84626,-54.09684
2022-11-29 03:39:01+00:00,340.6397,5.7,12.49,47.84626,-54.09684
2022-11-29 03:49:01+00:00,340.5713,5.7,12.49,47.84626,-54.09684
2022-11-29 03:59:01+00:00,334.3463,5.7,12.49,47.84626,-54.09684
2022-11-29 04:09:01+00:00,340.6880000000001,5.7,12.49,47.84626,-54.09684
2022-11-29 04:19:00+00:00,346.3279,5.7,12.49,47.84626,-54.09684
2022-11-29 04:29:00+00:00,343.2113,5.6,12.49,47.84626,-54.09684
2022-11-29 04:39:00+00:00,333.5196,5.7,12.49,47.84626,-54.09684
2022-11-29 04:49:00+00:00,333.983,5.7,12.49,47.84626,-54.09684
2022-11-29 04:59:00+00:00,331.4996,5.53,12.49,47.84626,-54.09684
2022-11-29 05:09:00+00:00,323.6329,5.36,12.49,47.84626,-54.09684
2022-11-29 05:19:01+00:00,322.2531,5.2,12.49,47.84626,-54.09684
2022-11-29 05:29:01+00:00,327.14799999999997,5.05,12.49,47.84626,-54.09684
2022-11-29 05:39:01+00:00,317.3763,4.9,12.49,47.84626,-54.09684
2022-11-29 05:49:01+00:00,295.078,5.1,12.49,47.84626,-54.09684
2022-11-29 05:59:01+00:00,290.6946,5.1,12.49,47.84626,-54.09684
2022-11-29 06:09:01+00:00,298.353,5.0,12.49,47.84626,-54.09684
2022-11-29 06:19:01+00:00,296.068,5.2,12.49,47.84626,-54.09684
2022-11-29 06:29:01+00:00,284.8664,5.53,12.49,47.84626,-54.09684
2022-11-29 06:39:01+00:00,278.7248,5.56,12.49,47.84626,-54.09684
2022-11-29 06:49:01+00:00,269.7281,5.2,12.49,47.84626,-54.09684
2022-11-29 06:59:01+00:00,255.4198,5.45,12.49,47.84626,-54.09684
2022-11-29 07:09:01+00:00,250.7697,5.57,12.49,47.84626,-54.09684
2022-11-29 07:19:00+00:00,249.0581,5.65,12.49,47.84626,-54.09684
2022-11-29 07:29:00+00:00,243.2514,5.2,12.49,47.84626,-54.09684
2022-11-29 07:39:00+00:00,235.1914,5.2,12.49,47.84626,-54.09684
2022-11-29 07:49:00+00:00,231.1614,5.17,12.49,47.84626,-54.09684
2022-11-29 07:59:00+00:00,227.6397,5.18,12.49,47.84626,-54.09684
2022-11-29 08:09:00+00:00,223.9264,5.2,12.49,47.84626,-54.09684
2022-11-29 08:19:00+00:00,219.4298,5.16,12.49,47.84626,-54.09684
2022-11-29 08:29:00+00:00,216.3514,5.32,12.49,47.84626,-54.09684
2022-11-29 08:39:00+00:00,214.7181,5.4,12.49,47.84626,-54.09684
2022-11-29 08:49:00+00:00,212.9648,5.38,12.49,47.84626,-54.09684
2022-11-29 08:59:00+00:00,205.8848,5.49,12.49,47.84626,-54.09684
2022-11-29 09:09:00+00:00,199.7714,5.42,12.49,47.84626,-54.09684
2022-11-29 09:19:00+00:00,200.2597,5.4,12.49,47.84626,-54.09684
2022-11-29 09:29:00+00:00,203.9531,5.4,12.49,47.84626,-54.09684
2022-11-29 09:39:00+00:00,200.9715,5.4,12.49,47.84626,-54.09684
2022-11-29 09:49:00+00:00,198.6165,5.49,12.49,47.84626,-54.09684
2022-11-29 09:59:00+00:00,200.3865,5.59,12.49,47.84626,-54.09684
2022-11-29 10:09:00+00:00,202.0648,5.6,12.49,47.84626,-54.09684
2022-11-29 10:19:00+00:00,202.9848,5.6,12.49,47.84626,-54.09684
2022-11-29 10:29:00+00:00,207.2131,5.6,12.49,47.84626,-54.09684
2022-11-29 10:39:00+00:00,220.0531,5.56,12.49,47.84626,-54.09684
2022-11-29 10:49:00+00:00,224.0364,5.57,12.49,47.84626,-54.09684
2022-11-29 10:59:00+00:00,221.0065,5.6,12.49,47.84626,-54.09684
2022-11-29 11:09:00+00:00,226.4464,5.69,12.49,47.84626,-54.09684
2022-11-29 11:19:00+00:00,232.3481,5.7,12.49,47.84626,-54.09684
2022-11-29 11:29:00+00:00,240.1598,5.7,12.49,47.84626,-54.09684
2022-11-29 11:39:00+00:00,246.5847,5.69,12.49,47.84626,-54.09684
2022-11-29 11:49:00+00:00,245.3698,5.6,12.49,47.84626,-54.09684
2022-11-29 11:59:00+00:00,248.0014,5.5,12.49,47.84626,-54.09684
2022-11-29 12:09:00+00:00,258.5147,5.54,12.49,47.84626,-54.09684
2022-11-29 12:19:00+00:00,263.308,5.5,13.37,47.84626,-54.09684
2022-11-29 12:29:00+00:00,260.6214,5.5,13.37,47.84626,-54.09684
2022-11-29 12:39:00+00:00,271.1714,5.5,13.37,47.84626,-54.09684
2022-11-29 12:49:00+00:00,280.288,5.6,13.37,47.84626,-54.09684
2022-11-29 12:59:00+00:00,283.9464,5.6,13.37,47.84626,-54.09684
2022-11-29 13:09:00+00:00,288.3497,5.63,13.37,47.84626,-54.09684
2022-11-29 13:19:01+00:00,301.623,5.7,13.92,47.84626,-54.09684
2022-11-29 13:29:01+00:00,311.633,5.77,13.92,47.84626,-54.09684
2022-11-29 13:39:01+00:00,318.1114,5.79,13.92,47.84626,-54.09684
2022-11-29 13:49:01+00:00,321.868,5.79,13.92,47.84626,-54.09684
2022-11-29 13:59:01+00:00,333.3447,5.76,13.92,47.84626,-54.09684
2022-11-29 14:09:01+00:00,350.0179,5.72,13.92,47.84626,-54.09684
2022-11-29 14:19:00+00:00,357.3229,5.7,13.92,47.84626,-54.09684
2022-11-29 14:29:00+00:00,354.2579,5.7,13.92,47.84626,-54.09684
2022-11-29 14:39:00+00:00,360.6379,5.7,13.92,47.84626,-54.09684
2022-11-29 14:49:00+00:00,375.5012,5.7,13.92,47.84626,-54.09684
2022-11-29 14:59:00+00:00,378.8846,5.7,13.92,47.84626,-54.09684
2022-11-29 15:09:00+00:00,375.5412,5.7,13.92,47.84626,-54.09684
2022-11-29 15:19:01+00:00,381.4512,5.7,14.16,47.84626,-54.09684
2022-11-29 15:29:01+00:00,387.903,5.7,14.16,47.84626,-54.09684
2022-11-29 15:39:01+00:00,387.1963,5.69,14.16,47.84626,-54.09684
2022-11-29 15:49:01+00:00,385.6862,5.7,14.16,47.84626,-54.09684
2022-11-29 15:59:01+00:00,390.0763,5.7,14.16,47.84626,-54.09684
2022-11-29 16:09:01+00:00,389.6163,5.7,14.16,47.84626,-54.09684
2022-11-29 16:19:00+00:00,383.423,5.7,13.68,47.84626,-54.09684
2022-11-29 16:29:00+00:00,390.8263,5.7,13.68,47.84626,-54.09684
2022-11-29 16:39:00+00:00,392.6246,5.7,13.68,47.84626,-54.09684
2022-11-29 16:49:00+00:00,386.1429,5.78,13.68,47.84626,-54.09684
2022-11-29 16:59:00+00:00,387.9529,5.79,13.68,47.84626,-54.09684
2022-11-29 17:09:00+00:00,389.4412,5.78,13.68,47.84626,-54.09684
2022-11-29 17:19:00+00:00,384.2963,5.79,14.08,47.84626,-54.09684
2022-11-29 17:29:00+00:00,379.8496,5.77,14.08,47.84626,-54.09684
2022-11-29 17:39:00+00:00,384.4095,5.74,14.08,47.84626,-54.09684
2022-11-29 17:49:00+00:00,382.0995,5.76,14.08,47.84626,-54.09684
2022-11-29 17:59:00+00:00,369.7896,5.7,14.08,47.84626,-54.09684
2022-11-29 18:09:00+00:00,366.2814,5.7,14.08,47.84626,-54.09684
2022-11-29 18:19:00+00:00,365.8479,5.72,13.44,47.84626,-54.09684
2022-11-29 18:29:00+00:00,358.1364,5.7,13.44,47.84626,-54.09684
2022-11-29 18:39:00+00:00,341.9496,5.7,13.44,47.84626,-54.09684
2022-11-29 18:49:00+00:00,334.1497,5.64,13.44,47.84626,-54.09684
2022-11-29 18:59:00+00:00,334.208,5.69,13.44,47.84626,-54.09684
2022-11-29 19:09:00+00:00,321.798,5.6,13.44,47.84626,-54.09684
2022-11-29 19:19:01+00:00,306.4064,5.6,13.13,47.84626,-54.09684
2022-11-29 19:29:01+00:00,302.5963,5.6,13.13,47.84626,-54.09684
2022-11-29 19:39:01+00:00,299.7964,5.6,13.13,47.84626,-54.09684
2022-11-29 19:49:01+00:00,288.6931,5.56,13.13,47.84626,-54.09684
2022-11-29 19:59:01+00:00,279.0814,5.66,13.13,47.84626,-54.09684
2022-11-29 20:09:01+00:00,276.6464,5.7,13.13,47.84626,-54.09684
2022-11-29 20:19:00+00:00,271.6164,5.56,12.81,47.84626,-54.09684
2022-11-29 20:29:00+00:00,262.1114,5.55,12.81,47.84626,-54.09684
2022-11-29 20:39:00+00:00,256.3647,5.6,12.81,47.84626,-54.09684
2022-11-29 20:49:00+00:00,255.7781,5.65,12.81,47.84626,-54.09684
2022-11-29 20:59:00+00:00,253.0498,5.68,12.81,47.84626,-54.09684
2022-11-29 21:09:00+00:00,249.8214,5.69,12.81,47.84626,-54.09684
2022-11-29 21:19:00+00:00,249.7147,5.7,12.73,47.84626,-54.09684
2022-11-29 21:29:00+00:00,248.9915,5.69,12.73,47.84626,-54.09684
2022-11-29 21:39:00+00:00,244.9481,5.6,12.73,47.84626,-54.09684
2022-11-29 21:49:00+00:00,244.1681,5.58,12.73,47.84626,-54.09684
2022-11-29 21:59:00+00:00,246.4447,5.57,12.73,47.84626,-54.09684
2022-11-29 22:09:00+00:00,247.6581,5.58,12.73,47.84626,-54.09684
2022-11-29 22:19:00+00:00,243.1948,5.5,12.73,47.84626,-54.09684
2022-11-29 22:29:00+00:00,244.8064,5.4,12.73,47.84626,-54.09684
2022-11-29 22:39:00+00:00,248.733,5.39,12.73,47.84626,-54.09684
2022-11-29 22:49:00+00:00,248.9281,5.38,12.73,47.84626,-54.09684
2022-11-29 22:59:00+00:00,245.2697,5.38,12.73,47.84626,-54.09684
2022-11-29 23:09:00+00:00,247.613,5.36,12.73,47.84626,-54.09684
2022-11-29 23:19:01+00:00,250.2581,5.37,12.73,47.84626,-54.09684
2022-11-29 23:29:01+00:00,249.6531,5.36,12.73,47.84626,-54.09684
2022-11-29 23:39:01+00:00,247.9831,5.32,12.73,47.84626,-54.09684
2022-11-29 23:49:01+00:00,252.5364,5.38,12.73,47.84626,-54.09684
2022-11-29 23:59:01+00:00,257.808,5.4,12.73,47.84626,-54.09684
